Regional Weather Roundup
Issued by NWS

Home | Current Version | Previous Version | Graphics & Text | Print | Product List | Glossary On
Versions: 1 2 3 4 5 6 7 8 9 10 11 12 13 14 15 16 17 18 19 20 21 22 23 24 25 26 27 28 29 30 31 32 33 34 35 36 37 38 39 40 41 42 43 44 45 46 47 48 49 50
363
ASUS45 KABQ 301401
RWRNM
NEW MEXICO REGIONAL WEATHER ROUNDUP
NATIONAL WEATHER SERVICE ALBUQUERQUE NM
800 AM MDT FRI SEP 30 2016

NOTE: "FAIR" MEANS FEW OR NO CLOUDS BELOW 12,000 FEET AGL WITH NO
       SIGNIFICANT WEATHER OR OBSTRUCTIONS TO VISION.

      THIS PRODUCT IS RELEASED AS TWO VERSIONS.  ONE VERSION NEAR
      THE TOP OF THE HOUR CONTAINING PRELIMINARY DATA FROM ALBUQUERQUE
      AND OTHER STATIONS.  A FINAL VERSION WITH ADDITIONAL DATA IS
      ISSUED ABOUT 10 MINUTES AFTER THE HOUR.

NMZ501-503-504-510>518-301500-
NORTHWEST PLATEAU/NORTHCENTRAL MOUNTAINS

CITY           SKY/WX    TMP DP  RH WIND       PRES   REMARKS
FARMINGTON     FAIR      49  48  97 CALM      30.34R
LOS ALAMOS     FAIR      51  46  80 NW3       30.42R
SANTA FE       FAIR      54  49  83 NE5       30.37S
TAOS           FAIR      46  36  66 CALM      30.42S
ANGEL FIRE     FAIR      49  42  76 S3        30.46S

$$
NMZ402-403-502-505>509-301500-
WESTCENTRAL MOUNTAINS/SOUTHWEST MOUNTAINS

CITY           SKY/WX    TMP DP  RH WIND       PRES   REMARKS
GALLUP         FOG       44  44 100 CALM      30.39R VSB 1/4
SILVER CITY    FAIR      55  54  95 N8        30.33F

$$
NMZ407-409-411-412-301500-
SOUTHERN DESERTS

CITY           SKY/WX    TMP DP  RH WIND       PRES   REMARKS
DEMING         FAIR      58  57  97 E5        30.30R
LAS CRUCES     FOG       58  57  97 E10       30.28F VSB<1/4
HOLLOMAN AFB   DRIZZLE   59  59 100 SW9       30.29R
ALAMOGORDO     LGT RAIN  59  59 100 S15       30.30F
T OR C         FAIR      58  54  86 W3        30.31F

$$
NMZ519>523-301500-
CENTRAL VALLEYS/CENTRAL HIGHLANDS

CITY           SKY/WX    TMP DP  RH WIND       PRES   REMARKS
ALBUQUERQUE    FAIR      58  53  84 SE3       30.33S
DOUBLE EAGLE   FOG       54  54 100 CALM      30.35S VSB 1/4
CLINES CORNERS FAIR      51  49  92 NW15      30.39S
BELEN          FAIR      56  56 100 S7        30.33R
SOCORRO        PTSUNNY   56  55  97 CALM      30.32R

$$
NMZ524>526-539-540-301500-
SOUTHCENTRAL MOUNTAINS

CITY           SKY/WX    TMP DP  RH WIND       PRES   REMARKS
RUIDOSO        PTSUNNY   54  50  87 N5        30.40R

$$
NMZ527>531-301500-
NORTHEAST HIGHLANDS/NORTHEAST PLAINS

CITY           SKY/WX    TMP DP  RH WIND       PRES   REMARKS
LAS VEGAS      FAIR      51  41  68 CALM      30.34R
RATON          FAIR      53  37  54 NE5       30.30S
CLAYTON        FAIR      57  45  64 W8        30.24S

$$
NMZ532>537-301500-
EASTCENTRAL PLAINS

CITY           SKY/WX    TMP DP  RH WIND       PRES   REMARKS
TUCUMCARI      FAIR      62  48  60 SW17G25   30.22F
CANNON AFB     FAIR      56  50  79 SW7       30.28F
CLOVIS AIRPORT FAIR      54  46  76 SW7       30.29S

$$
NMZ028-029-538-301500-
SOUTHEAST PLAINS

CITY           SKY/WX    TMP DP  RH WIND       PRES   REMARKS
ROSWELL        FAIR      55  48  77 S6        30.27F
ARTESIA        FAIR      57  54  88 CALM      30.29S
CARLSBAD       PTSUNNY   59  53  80 S5        30.27S
HOBBS          SUNNY     52  52 100 CALM      30.30F


$$




USA.gov is the U.S. government's official web portal to all federal, state and local government web resources and services.